Regional Weather Roundup
Issued by NWS

Home | Current Version | Previous Version | Graphics & Text | Print | Product List | Glossary On
Versions: 1 2 3 4 5 6 7 8 9 10 11 12 13 14 15 16 17 18 19 20 21 22 23 24 25 26 27 28 29 30 31 32 33 34 35 36 37 38 39 40 41 42 43 44 45 46 47 48 49 50
000
ASUS43 KTOP 250808
RWRKS

WEATHER ROUNDUP FOR KANSAS
NATIONAL WEATHER SERVICE GOODLAND KS
200 AM CST SUN JAN 25 2015

NOTE:  "FAIR" INDICATES FEW OR NO CLOUDS BELOW 12,000 FEET WITH NO
SIGNIFICANT WEATHER AND/OR OBSTRUCTIONS TO VISIBILITY.

KSZ001>006-013>018-027>032-041>047-250900-
NORTHWEST KANSAS

CITY           SKY/WX    TMP DP  RH WIND       PRES   REMARKS
GOODLAND       CLOUDY    40  27  59 NW26G36   30.04R WCI  29
HAYS           CLEAR     45  28  53 NW30G41   29.91R
HILL CITY      CLEAR     43  30  60 NW14G25   29.93R
RUSSELL        MOCLDY    46  35  65 NW24G36   29.86S
$$

KSZ061>065-074>080-084>089-250900-
SOUTHWEST KANSAS

CITY           SKY/WX    TMP DP  RH WIND       PRES   REMARKS
DODGE CITY     MOCLDY    47  27  45 NW23G36   29.97S
ELKHART          N/A    N/A N/A N/A MISG        N/A
GARDEN CITY    PTCLDY    45  26  47 N37G45    29.98S
GREAT BEND     CLOUDY    46  32  57 NW20G25   29.91R
LIBERAL        PTCLDY    45  28  53 NW17      30.05R
PRATT          CLOUDY    46  34  61 NW18G24   29.92R
$$

KSZ066>073-081>083-090>101-250900-
SOUTHEAST KANSAS

CITY           SKY/WX    TMP DP  RH WIND       PRES   REMARKS
CHANUTE        CLOUDY    51  37  58 W15       29.72F
COFFEYVILLE    CLOUDY    52  31  44 W10       29.75S
HUTCHINSON     CLOUDY    49  35  58 NW22      29.84S
MEDICINE LODGE   N/A     53  34  48 NW18G32   29.89R
NEWTON         MOCLDY    48  34  57 NW22G31   29.81S
PARSONS        CLOUDY    50  32  50 W7        29.74F
WICHITA INTL   MOCLDY    52  35  52 NW17      29.82S
WICHITA JABRA  MOCLDY    51  35  54 NW20G31   29.80F
WICHITA MCCONL MOCLDY    52  36  53 NW17G25   29.81S
WINFIELD       CLOUDY    51  31  46 NW22      29.83R
$$

KSZ007>012-019>026-033>040-048>060-102>105-250900-
NORTHEAST KANSAS

CITY           SKY/WX    TMP DP  RH WIND       PRES   REMARKS
CONCORDIA      MOCLDY    46  34  62 W16       29.77R
EMPORIA        CLOUDY    49  37  63 NW16G25   29.73R
LAWRENCE       CLOUDY    46  40  79 NW14      29.68S
MANHATTAN      MOCLDY    48  36  63 W10       29.73F
MARYSVILLE     CLOUDY    46  36  66 NW24G31   29.70R
OLATHE IND     CLOUDY    45  42  89 W8        29.67F
OLATHE EXE     CLOUDY    46  43  89 W7        29.65F
SALINA         MOCLDY    47  36  65 NW24G31   29.80S
TOPEKA BILLARD LGT RAIN  49  38  65 W10G21    29.70R
TOPEKA FORBES  CLOUDY    48  40  73 NW15      29.69R
$$


USA.gov is the U.S. government's official web portal to all federal, state and local government web resources and services.